Stündliche Wetter Berlin

Heute, 29 September, Dienstag

Zeit Temperatur Niederschläge Wind Luftdruck Luftfeuchtigkeit
00:00 +13°C° 0 mm 1 m/S 757 mmHg 72%
01:00 +12°C° 0 mm 0 m/S 757 mmHg 71%
02:00 +12°C° 0 mm 0 m/S 757 mmHg 72%
03:00 +12°C° 0 mm 0 m/S 757 mmHg 72%
04:00 +11°C° 0 mm 0 m/S 757 mmHg 73%
05:00 +12°C° 0 mm 0 m/S 757 mmHg 73%
06:00 +12°C° 0 mm 0 m/S 758 mmHg 73%
07:00 +12°C° 0 mm 0 m/S 758 mmHg 73%
08:00 +14°C° 0 mm 1 m/S 758 mmHg 70%
09:00 +15°C° 0 mm 1 m/S 758 mmHg 68%
10:00 +15°C° 0 mm 1 m/S 758 mmHg 65%
11:00 +18°C° 0 mm 1 m/S 758 mmHg 60%
12:00 +19°C° 0 mm 1 m/S 758 mmHg 56%
13:00 +20°C° 0 mm 1 m/S 758 mmHg 51%
14:00 +20°C° 0 mm 1 m/S 758 mmHg 52%
15:00 +20°C° 0 mm 1 m/S 758 mmHg 52%
16:00 +19°C° 0 mm 2 m/S 758 mmHg 53%
17:00 +19°C° 0 mm 1 m/S 758 mmHg 58%
18:00 +16°C° 0 mm 1 m/S 758 mmHg 63%
19:00 +15°C° 0 mm 1 m/S 759 mmHg 69%
20:00 +14°C° 0 mm 1 m/S 759 mmHg 71%
21:00 +14°C° 0 mm 1 m/S 759 mmHg 73%
22:00 +12°C° 0 mm 0 m/S 759 mmHg 75%
23:00 +12°C° 0 mm 0 m/S 759 mmHg 76%

Morgen, 30 September, Mittwoch

Zeit Temperatur Niederschläge Wind Luftdruck Luftfeuchtigkeit
00:00 +13°C° 0 mm 1 m/S 759 mmHg 76%
01:00 +12°C° 0 mm 1 m/S 759 mmHg 77%
02:00 +12°C° 0 mm 1 m/S 759 mmHg 78%
03:00 +12°C° 0 mm 1 m/S 759 mmHg 79%
04:00 +11°C° 0 mm 1 m/S 758 mmHg 81%
05:00 +11°C° 0 mm 0 m/S 758 mmHg 80%
06:00 +11°C° 0 mm 0 m/S 759 mmHg 80%
07:00 +11°C° 0 mm 0 m/S 759 mmHg 80%
08:00 +13°C° 0 mm 0 m/S 759 mmHg 73%
09:00 +15°C° 0 mm 0 m/S 759 mmHg 65%
10:00 +17°C° 0 mm 0 m/S 759 mmHg 58%
11:00 +18°C° 0 mm 0 m/S 758 mmHg 54%
12:00 +19°C° 0 mm 0 m/S 758 mmHg 50%
13:00 +20°C° 0 mm 0 m/S 757 mmHg 46%
14:00 +19°C° 0 mm 0 m/S 757 mmHg 47%
15:00 +21°C° 0 mm 1 m/S 757 mmHg 47%
16:00 +21°C° 0 mm 1 m/S 757 mmHg 47%
17:00 +19°C° 0 mm 1 m/S 757 mmHg 53%
18:00 +18°C° 0 mm 1 m/S 757 mmHg 59%
19:00 +15°C° 0 mm 1 m/S 757 mmHg 65%
20:00 +15°C° 0 mm 1 m/S 757 mmHg 69%
21:00 +14°C° 0 mm 1 m/S 756 mmHg 73%
22:00 +14°C° 0 mm 1 m/S 756 mmHg 77%
23:00 +13°C° 0 mm 1 m/S 756 mmHg 80%

übermorgen, 1 Oktober, Donnerstag

Zeit Temperatur Niederschläge Wind Luftdruck Luftfeuchtigkeit
00:00 +13°C° 0 mm 1 m/S 756 mmHg 83%
01:00 +13°C° 0 mm 1 m/S 756 mmHg 86%
02:00 +13°C° 0 mm 1 m/S 755 mmHg 87%
03:00 +12°C° 0 mm 1 m/S 755 mmHg 88%
04:00 +12°C° 0 mm 1 m/S 754 mmHg 90%
05:00 +12°C° 0 mm 1 m/S 754 mmHg 89%
06:00 +12°C° 0 mm 1 m/S 753 mmHg 88%
07:00 +12°C° 0 mm 1 m/S 753 mmHg 88%
08:00 +14°C° 0 mm 2 m/S 753 mmHg 79%
09:00 +15°C° 0 mm 2 m/S 752 mmHg 70%
10:00 +17°C° 0 mm 2 m/S 752 mmHg 61%
11:00 +18°C° 0 mm 2 m/S 752 mmHg 57%
12:00 +19°C° 0 mm 2 m/S 751 mmHg 53%
13:00 +20°C° 0 mm 2 m/S 750 mmHg 48%
14:00 +20°C° 0 mm 2 m/S 750 mmHg 51%
15:00 +20°C° 0 mm 2 m/S 750 mmHg 54%
16:00 +19°C° 0 mm 2 m/S 750 mmHg 57%
17:00 +18°C° 0 mm 2 m/S 750 mmHg 64%
18:00 +17°C° 0 mm 2 m/S 750 mmHg 71%
19:00 +16°C° 0 mm 2 m/S 750 mmHg 78%
20:00 +15°C° 0 mm 2 m/S 750 mmHg 81%
21:00 +15°C° 0 mm 2 m/S 750 mmHg 84%
22:00 +15°C° 0 mm 2 m/S 750 mmHg 87%
23:00 +14°C° 0 mm 2 m/S 750 mmHg 88%

2 Oktober, Freitag

Zeit Temperatur Niederschläge Wind Luftdruck Luftfeuchtigkeit
00:00 +14°C° 0 mm 2 m/S 750 mmHg 89%
01:00 +14°C° 0 mm 1 m/S 749 mmHg 91%
02:00 +14°C° 0 mm 2 m/S 749 mmHg 91%
03:00 +13°C° 0 mm 2 m/S 749 mmHg 91%
04:00 +13°C° 0 mm 2 m/S 749 mmHg 92%
05:00 +12°C° 0 mm 3 m/S 749 mmHg 91%
06:00 +12°C° 0 mm 3 m/S 750 mmHg 90%
07:00 +12°C° 0 mm 3 m/S 750 mmHg 90%
08:00 +13°C° 0 mm 3 m/S 750 mmHg 85%
09:00 +14°C° 0 mm 4 m/S 750 mmHg 80%
10:00 +15°C° 0 mm 4 m/S 750 mmHg 75%
11:00 +17°C° 0 mm 4 m/S 749 mmHg 72%
12:00 +17°C° 0 mm 5 m/S 749 mmHg 68%
13:00 +19°C° 0 mm 5 m/S 749 mmHg 64%
14:00 +19°C° 0 mm 5 m/S 749 mmHg 65%
15:00 +19°C° 0 mm 6 m/S 748 mmHg 65%
16:00 +19°C° 0 mm 6 m/S 748 mmHg 65%
17:00 +17°C° 0 mm 6 m/S 748 mmHg 68%
18:00 +16°C° 0 mm 6 m/S 748 mmHg 71%
19:00 +15°C° 0 mm 6 m/S 749 mmHg 74%
20:00 +14°C° 0 mm 6 m/S 748 mmHg 74%
21:00 +14°C° 0 mm 6 m/S 748 mmHg 75%
22:00 +14°C° 0 mm 6 m/S 748 mmHg 75%
23:00 +14°C° 0 mm 6 m/S 748 mmHg 76%

3 Oktober, Samstag

Zeit Temperatur Niederschläge Wind Luftdruck Luftfeuchtigkeit
00:00 +13°C° 0 mm 6 m/S 747 mmHg 78%
01:00 +13°C° 0 mm 6 m/S 747 mmHg 79%
02:00 +13°C° 0 mm 6 m/S 746 mmHg 80%
03:00 +13°C° 0 mm 6 m/S 746 mmHg 81%
04:00 +12°C° 0 mm 7 m/S 746 mmHg 82%
05:00 +12°C° 0 mm 7 m/S 745 mmHg 82%
06:00 +12°C° 0 mm 7 m/S 745 mmHg 82%
07:00 +13°C° 0 mm 6 m/S 745 mmHg 82%
08:00 +15°C° 0 mm 7 m/S 744 mmHg 77%
09:00 +16°C° 0 mm 7 m/S 744 mmHg 72%
10:00 +18°C° 0 mm 7 m/S 744 mmHg 66%
11:00 +20°C° 0 mm 7 m/S 743 mmHg 63%
12:00 +21°C° 0 mm 6 m/S 743 mmHg 60%
13:00 +22°C° 0 mm 6 m/S 743 mmHg 56%
14:00 +22°C° 0 mm 6 m/S 742 mmHg 57%
15:00 +22°C° 0 mm 5 m/S 742 mmHg 58%
16:00 +22°C° 0 mm 5 m/S 741 mmHg 59%
17:00 +21°C° 0 mm 5 m/S 741 mmHg 64%
18:00 +20°C° 0 mm 5 m/S 741 mmHg 68%
19:00 +19°C° 0 mm 4 m/S 741 mmHg 73%
20:00 +19°C° 0 mm 4 m/S 740 mmHg 74%
21:00 +18°C° 0 mm 4 m/S 740 mmHg 76%
22:00 +18°C° 0 mm 4 m/S 739 mmHg 77%
23:00 +18°C° 0 mm 4 m/S 739 mmHg 77%

4 Oktober, Sonntag

Zeit Temperatur Niederschläge Wind Luftdruck Luftfeuchtigkeit
00:00 +17°C° 0 mm 5 m/S 739 mmHg 76%
01:00 +17°C° 0 mm 5 m/S 739 mmHg 75%
02:00 +15°C° 0.3 mm 6 m/S 739 mmHg 79%
03:00 +14°C° 0.3 mm 7 m/S 739 mmHg 82%
04:00 +11°C° 0.3 mm 7 m/S 739 mmHg 85%
05:00 +11°C° 0.8 mm 6 m/S 740 mmHg 85%
06:00 +10°C° 0.8 mm 5 m/S 742 mmHg 84%
07:00 +11°C° 0.8 mm 4 m/S 743 mmHg 84%
08:00 +12°C° 0 mm 5 m/S 744 mmHg 78%
09:00 +13°C° 0 mm 5 m/S 745 mmHg 72%
10:00 +14°C° 0 mm 5 m/S 746 mmHg 66%
11:00 +15°C° 0 mm 6 m/S 746 mmHg 60%
12:00 +16°C° 0 mm 6 m/S 746 mmHg 55%
13:00 +17°C° 0 mm 7 m/S 746 mmHg 49%
14:00 +17°C° 0 mm 6 m/S 747 mmHg 50%
15:00 +17°C° 0 mm 5 m/S 747 mmHg 50%
16:00 +18°C° 0 mm 4 m/S 747 mmHg 51%
17:00 +17°C° 0 mm 4 m/S 748 mmHg 55%
18:00 +15°C° 0 mm 4 m/S 748 mmHg 59%
19:00 +14°C° 0 mm 3 m/S 748 mmHg 63%
20:00 +13°C° 0 mm 3 m/S 748 mmHg 64%
21:00 +13°C° 0 mm 3 m/S 748 mmHg 65%
22:00 +13°C° 0 mm 2 m/S 748 mmHg 66%
23:00 +12°C° 0 mm 3 m/S 748 mmHg 67%
Mehr zeigen

We Need Your Consent

Meteoprog and our Service Providers may store and access personal data such as cookies, device identifiers or other similar technologies on your device and process such data to personalise content and ads, as well as provide social media features and to analyse the traffic.

  • Store and/or access information on your device

    Cookies, device identifiers or other information can be stored or accessed on your device for the purposes indicated above.

  • Personalised ads and content, ad and content measurement, audience insights, and products development

    Ads and content can be personalised based on a profile. More data can be added to better personalise ads and content. Ad and content performance can be measured. Insights about the audience who saw the ads and content can be derived. Such data can be used to develop or improve user’s experience, systems and software.

By clicking ‘I Agree’ you will allow the use of indicated cookies, device identifiers, web beacons or other similar technologies. Your settings can be changed in the browser on your device.

For certain purposes, legitimate interests may be relied on, rather than consent. You can read more about this in our Privacy and Cookie Policy.